Regional Weather Roundup
Issued by NWS

Home | Current Version | Previous Version | Graphics & Text | Print | Product List | Glossary On
Versions: 1 2 3 4 5 6 7 8 9 10 11 12 13 14 15 16 17 18 19 20 21 22 23 24 25 26 27 28 29 30 31 32 33 34 35 36 37 38 39 40 41 42 43 44 45 46 47 48 49 50
000
ASUS43 KLOT 250409
RWRIL

ILLINOIS REGIONAL WEATHER ROUNDUP
NATIONAL WEATHER SERVICE CHICAGO/ROMEOVILLE IL
1100 PM CDT TUE MAY 24 2016

NOTE: "FAIR" INDICATES FEW OR NO CLOUDS BELOW 12,000 FEET WITH NO
SIGNIFICANT WEATHER AND/OR OBSTRUCTIONS TO VISIBILITY.

* THESE STATIONS ARE NOT UNDER NWS QUALITY CONTROL. THEY ALSO MAY NOT
  REPORT WEATHER SUCH AS PRECIPITATION OR FOG.

ILZ001-002-007-009-015-016-024-250500-
NORTHWEST ILLINOIS

CITY           SKY/WX    TMP DP  RH WIND       PRES   REMARKS
MOLINE         CLOUDY    74  62  66 SW7       29.93S
STERLING*      MOCLDY    75  61  61 CALM      29.95S
SAVANNA*       CLOUDY    71  60  68 CALM      29.94S
$$

ILZ003-004-008-010-011-017-018-250500-
NORTH CENTRAL ILLINOIS

CITY           SKY/WX    TMP DP  RH WIND       PRES   REMARKS
ROCKFORD       LGT RAIN  74  60  61 W3        29.97R
FREEPORT*      CLOUDY    72  59  64 S6        29.96S
ROCHELLE*      CLOUDY    71  57  61 S8        29.97R
DE KALB*       PTCLDY    71  58  65 S8        29.98S
$$

ILZ005-006-012>014-019>023-250500-
NORTHEAST ILLINOIS

CITY           SKY/WX    TMP DP  RH WIND       PRES   REMARKS
CHICAGO-OHARE  CLOUDY    76  56  49 S10       29.96S
CHICAGO-MIDWAY CLOUDY    78  55  44 S9        29.97S
AURORA         CLOUDY    75  58  55 S8        29.97S
LANSING*       PTCLDY    72  55  55 S8        29.99F
JOLIET*        CLOUDY    74  60  60 S3        29.98S
WAUKEGAN       PTCLDY    65  57  75 CALM      29.95S
DUPAGE AIRPORT CLOUDY    71  56  58 S8        29.97R
KANKAKEE*      PTCLDY   N/A N/A N/A S8        30.00F
WHEELING       CLOUDY    77  55  46 S10       29.97S
MORRIS*        CLOUDY    75  58  55 S7        29.96F
ROMEOVILLE*    CLOUDY    73  56  53 S9        29.98S
NORTHERLY ISL    N/A     78  53  41 S12         N/A
NORTHERLY ISL    N/A     78  53  41 S12         N/A
$$

LMZ740>746-250500-
SOUTHERN LAKE MICHIGAN

STATION/POSITION SKY/WX   TEMP    WIND        PRES    VSBY  WAVE
                          AIR SEA DIR/SP/G                  HT/PER
                          (F)     (DEG/KT/KT) (MB)    (MI)  (FT/S)
SOUTHERN BUOY              63 49   90/  2/  2 1014.7R         0
WILMETTE HARBOR            70 57  220/ 10/ 12   N/A           1
HARRISON CRIB              80     200/ 17/ 19   N/A
BURNHAM HARBOR             78     210/ 11/ 13   N/A
CALUMET HARBOR             78     180/  8/ 14 1014.7R
BURNS HARBOR               76     190/ 10/ 13 1015.9R
MICHIGAN CITY              77     170/ 13/ 16   N/A
MICHIGAN CITY 6N           68 58  200/ 10/ 10   N/A           1
ST. JOSEPH                 66 60  190/  8/ 10   N/A           1
$$

ILZ025>027-034>036-040-047-049-050-058-095>099-250500-
WEST-CENTRAL ILLINOIS

CITY           SKY/WX    TMP DP  RH WIND       PRES   REMARKS
QUINCY         CLOUDY    68  62  81 S9        29.96S
GALESBURG*     CLOUDY    68  60  76 CALM      29.96S
MACOMB*        CLOUDY    68  62  81 CALM      29.98F
JACKSONVILLE*  PTCLDY    71  62  74 S6        29.98S
PITTSFIELD*    CLOUDY    67  63  85 S5        29.98F
$$

ILZ028>032-037-038-041>044-048-051>054-059>061-250500-
CENTRAL ILLINOIS

CITY           SKY/WX    TMP DP  RH WIND       PRES   REMARKS
PONTIAC        CLOUDY    75  63  67 S10       29.99F
BLOOMINGTON    CLOUDY    72  64  75 S10       30.01S
DECATUR        CLOUDY    71  62  73 S9        30.01S
PEORIA         CLOUDY    74  62  66 SE3       29.97S
LACON*         MOCLDY    72  60  65 CALM      29.96R
LINCOLN*       CLOUDY    73  66  76 S9        29.99S
SPRINGFIELD    CLOUDY    73  65  75 S9        29.99R
TAYLORVILLE    MOCLDY    69  62  78 S12       30.01S
$$

ILZ033-039-045-046-055>057-062-063-250500-
EAST-CENTRAL ILLINOIS

CITY           SKY/WX    TMP DP  RH WIND       PRES   REMARKS
CHAMPAIGN      MOCLDY    71  59  65 S8        30.02S
RANTOUL*       PTCLDY    72  60  65 S6        30.01F
MATTOON        CLEAR     69  58  67 S7        30.01F
PARIS*         PTCLDY    69  58  70 CALM      30.05R
$$

ILZ079-100>102-250500-
SOUTHWEST ILLINOIS

CITY           SKY/WX    TMP DP  RH WIND       PRES   REMARKS
ALTON          CLOUDY    66  62  86 SE5       30.01F
CAHOKIA*       PTCLDY    67  62  84 S3        30.01F
SPARTA*        PTCLDY    64  63  96 SE3       30.04F
$$

ILZ064>066-069>071-074>076-080>082-084>086-088>090-092>094-250500-
SOUTH-CENTRAL ILLINOIS

CITY           SKY/WX    TMP DP  RH WIND       PRES   REMARKS
CARBONDALE     CLOUDY    68  62  81 CALM      30.04S
CAIRO*         CLOUDY    68  63  85 W5        30.04R
EFFINGHAM*     CLOUDY    69  62  78 SE5       30.04S
MARION         CLOUDY    66  63  88 SE3       30.04F
MT. VERNON     CLOUDY    66  61  82 CALM      30.04F
CENTRALIA*     CLOUDY    67  65  94 CALM      30.02F
SALEM*         CLOUDY    69  64  83 SW3       30.03F
METROPOLIS*    CLOUDY    69  66  91 CALM      30.05F
$$

ILZ067-068-072-073-078-083-087-091-250500-
SOUTHEAST ILLINOIS

CITY           SKY/WX    TMP DP  RH WIND       PRES   REMARKS
LAWRENCEVILLE  PTCLDY    69  60  73 S6        30.04S
FLORA*         PTCLDY    67  62  84 S3        30.03F
FAIRFIELD*     PTCLDY    69  64  84 S5        30.04S
HARRISBURG*    CLOUDY    67  63  85 CALM      30.05F
ROBINSON*      CLOUDY    65  59  80 SE5       30.05S
CARMI*         PTCLDY    66  63  89 SW5       30.05S
$$

ABBREVIATIONS USED IN REMARKS
   TC - TEMPERATURE IN CELSIUS
  WCI - WIND CHILL INDEX
   HX - HEAT INDEX
  VSB - VISIBILITY
$$





USA.gov is the U.S. government's official web portal to all federal, state and local government web resources and services.